"Sample Date","Sample Time","Sample Value","Units","Flow Rate","Laser Status","Micron Size 0","Counts/Channel 0","Micron Size 1","Counts/Channel 1","Micron Size 2","Counts/Channel 2","Micron Size 3","Counts/Channel 3","Micron Size 4","Counts/Channel 4","Micron Size 5","Counts/Channel 5","Micron Size 6","Counts/Channel 6","Micron Size 7","Counts/Channel 7","Micron Size 8","Counts/Channel 8","Micron Size 9","Counts/Channel 9","Micron Size 10","Counts/Channel 10","Micron Size 11","Counts/Channel 11","Micron Size 12","Counts/Channel 12","Micron Size 13","Counts/Channel 13","Micron Size 14","Counts/Channel 14","Micron Size 15","Counts/Channel 15","Micron Size 16","Counts/Channel 16","Micron Size 17","Counts/Channel 17","Micron Size 18","Counts/Channel 18","Micron Size 19","Counts/Channel 19","Micron Size 20","Counts/Channel 20","Micron Size 21","Counts/Channel 21","Micron Size 22","Counts/Channel 22","Micron Size 23","Counts/Channel 23","Micron Size 24","Counts/Channel 24","Micron Size 25","Counts/Channel 25","Micron Size 26","Counts/Channel 26","Micron Size 27","Counts/Channel 27","Micron Size 28","Counts/Channel 28","Micron Size 29","Counts/Channel 29","Micron Size 30","Counts/Channel 30","Micron Size 31","Counts/Channel 31"
"05/03/07","01:00:05",71100.000,"cc",28301.680,1,0.100,56131.000,0.200,13272.000,0.300,1627.000,0.500,65.000,1.000,5.000,5.000,0
"05/03/07","01:00:11",71359.000,"cc",28310.690,1,0.100,56244.000,0.200,13415.000,0.300,1632.000,0.500,66.000,1.000,2.000,5.000,0
"05/03/07","01:00:17",72049.000,"cc",28342.242,1,0.100,56656.000,0.200,13623.000,0.300,1703.000,0.500,64.000,1.000,3.000,5.000,0
"05/03/07","01:00:23",71792.000,"cc",28353.383,1,0.100,56512.000,0.200,13609.000,0.300,1609.000,0.500,57.000,1.000,5.000,5.000,0
"05/03/07","01:00:29",72529.000,"cc",28312.674,1,0.100,57029.000,0.200,13678.000,0.300,1753.000,0.500,63.000,1.000,6.000,5.000,0
"05/03/07","01:00:35",72645.000,"cc",28327.967,1,0.100,57121.000,0.200,13703.000,0.300,1740.000,0.500,76.000,1.000,5.000,5.000,0
"05/03/07","01:00:41",72535.000,"cc",28299.760,1,0.100,57113.000,0.200,13603.000,0.300,1745.000,0.500,67.000,1.000,7.000,5.000,0
"05/03/07","01:00:47",72856.000,"cc",28404.971,1,0.100,57582.000,0.200,13481.000,0.300,1710.000,0.500,77.000,1.000,6.000,5.000,0
"05/03/07","01:00:53",72052.000,"cc",28298.719,1,0.100,56825.000,0.200,13434.000,0.300,1727.000,0.500,58.000,1.000,8.000,5.000,0
"05/03/07","01:00:59",72663.000,"cc",28273.178,1,0.100,57330.000,0.200,13601.000,0.300,1674.000,0.500,55.000,1.000,3.000,5.000,0
"05/03/07","01:01:05",72629.000,"cc",28319.506,1,0.100,57210.000,0.200,13702.000,0.300,1645.000,0.500,65.000,1.000,7.000,5.000,0
"05/03/07","01:01:11",72409.000,"cc",28327.719,1,0.100,56963.000,0.200,13673.000,0.300,1704.000,0.500,60.000,1.000,9.000,5.000,0
"05/03/07","01:01:17",72573.000,"cc",28334.428,1,0.100,57236.000,0.200,13670.000,0.300,1606.000,0.500,55.000,1.000,6.000,5.000,0
"05/03/07","01:01:23",72414.000,"cc",28354.623,1,0.100,56931.000,0.200,13742.000,0.300,1676.000,0.500,62.000,1.000,3.000,5.000,0
"05/03/07","01:01:29",72825.000,"cc",28338.125,1,0.100,57248.000,0.200,13784.000,0.300,1740.000,0.500,52.000,1.000,1.000,5.000,0
"05/03/07","01:01:35",72968.000,"cc",28296.969,1,0.100,57482.000,0.200,13713.000,0.300,1707.000,0.500,58.000,1.000,8.000,5.000,0
"05/03/07","01:01:41",72958.000,"cc",28338.836,1,0.100,57442.000,0.200,13707.000,0.300,1741.000,0.500,63.000,1.000,5.000,5.000,0
"05/03/07","01:01:47",74024.000,"cc",28245.037,1,0.100,58266.000,0.200,13898.000,0.300,1790.000,0.500,63.000,1.000,7.000,5.000,0
"05/03/07","01:01:53",74255.000,"cc",28345.908,1,0.100,58520.000,0.200,13909.000,0.300,1756.000,0.500,65.000,1.000,5.000,5.000,0
"05/03/07","01:01:59",74898.000,"cc",28260.074,1,0.100,58808.000,0.200,14209.000,0.300,1803.000,0.500,76.000,1.000,2.000,5.000,0
"05/03/07","01:02:05",75493.000,"cc",28313.486,1,0.100,59326.000,0.200,14384.000,0.300,1724.000,0.500,53.000,1.000,6.000,5.000,0
"05/03/07","01:02:11",75809.000,"cc",28347.195,1,0.100,59582.000,0.200,14338.000,0.300,1814.000,0.500,74.000,1.000,1.000,5.000,0
"05/03/07","01:02:17",75778.000,"cc",28278.588,1,0.100,59680.000,0.200,14236.000,0.300,1785.000,0.500,72.000,1.000,5.000,5.000,0
"05/03/07","01:02:23",75402.000,"cc",28277.856,1,0.100,59113.000,0.200,14383.000,0.300,1838.000,0.500,64.000,1.000,4.000,5.000,0
"05/03/07","01:02:29",74986.000,"cc",28321.406,1,0.100,58985.000,0.200,14251.000,0.300,1691.000,0.500,54.000,1.000,5.000,5.000,0
"05/03/07","01:02:35",75022.000,"cc",28352.992,1,0.100,59375.000,0.200,13857.000,0.300,1727.000,0.500,59.000,1.000,4.000,5.000,0
"05/03/07","01:02:41",75289.000,"cc",28332.299,1,0.100,59240.000,0.200,14191.000,0.300,1779.000,0.500,75.000,1.000,4.000,5.000,0
"05/03/07","01:02:47",74745.000,"cc",28338.854,1,0.100,58802.000,0.200,14126.000,0.300,1734.000,0.500,76.000,1.000,7.000,5.000,0
"05/03/07","01:02:53",75017.000,"cc",28327.568,1,0.100,58993.000,0.200,14217.000,0.300,1728.000,0.500,72.000,1.000,7.000,5.000,0
"05/03/07","01:02:59",75136.000,"cc",28302.801,1,0.100,59073.000,0.200,14259.000,0.300,1747.000,0.500,51.000,1.000,6.000,5.000,0
"05/03/07","01:03:05",74669.000,"cc",28338.945,1,0.100,58344.000,0.200,14486.000,0.300,1780.000,0.500,55.000,1.000,4.000,5.000,0
"05/03/07","01:03:11",75033.000,"cc",28291.641,1,0.100,59050.000,0.200,14158.000,0.300,1762.000,0.500,60.000,1.000,3.000,5.000,0
"05/03/07","01:03:17",74987.000,"cc",28283.756,1,0.100,59005.000,0.200,14142.000,0.300,1767.000,0.500,69.000,1.000,4.000,5.000,0
"05/03/07","01:03:23",74952.000,"cc",28352.635,1,0.100,58864.000,0.200,14213.000,0.300,1820.000,0.500,51.000,1.000,4.000,5.000,0
"05/03/07","01:03:29",74760.000,"cc",28354.147,1,0.100,58959.000,0.200,13867.000,0.300,1856.000,0.500,69.000,1.000,9.000,5.000,0
"05/03/07","01:03:35",73930.000,"cc",28314.111,1,0.100,58190.000,0.200,13916.000,0.300,1747.000,0.500,73.000,1.000,4.000,5.000,0
"05/03/07","01:03:41",74060.000,"cc",28305.467,1,0.100,58381.000,0.200,13920.000,0.300,1686.000,0.500,67.000,1.000,6.000,5.000,0
"05/03/07","01:03:47",74416.000,"cc",28305.332,1,0.100,58379.000,0.200,14170.000,0.300,1796.000,0.500,66.000,1.000,5.000,5.000,0
"05/03/07","01:03:53",74184.000,"cc",28298.690,1,0.100,58313.000,0.200,14047.000,0.300,1757.000,0.500,61.000,1.000,6.000,5.000,0
"05/03/07","01:03:59",73997.000,"cc",28322.432,1,0.100,58255.000,0.200,13863.000,0.300,1810.000,0.500,63.000,1.000,6.000,5.000,0
"05/03/07","01:04:05",73722.000,"cc",28328.084,1,0.100,57817.000,0.200,14071.000,0.300,1768.000,0.500,65.000,1.000,1.000,5.000,0
"05/03/07","01:04:11",73613.000,"cc",28305.865,1,0.100,58059.000,0.200,13706.000,0.300,1774.000,0.500,65.000,1.000,9.000,5.000,0
"05/03/07","01:04:17",74444.000,"cc",28353.525,1,0.100,58606.000,0.200,13973.000,0.300,1788.000,0.500,72.000,1.000,5.000,5.000,0
"05/03/07","01:04:23",74139.000,"cc",28347.065,1,0.100,58457.000,0.200,13853.000,0.300,1770.000,0.500,52.000,1.000,7.000,5.000,0
"05/03/07","01:04:29",74630.000,"cc",28319.275,1,0.100,58689.000,0.200,14076.000,0.300,1805.000,0.500,49.000,1.000,11.000,5.000,0
"05/03/07","01:04:35",74182.000,"cc",28345.063,1,0.100,58359.000,0.200,14011.000,0.300,1742.000,0.500,63.000,1.000,7.000,5.000,0
"05/03/07","01:04:41",73381.000,"cc",28287.957,1,0.100,57605.000,0.200,13939.000,0.300,1743.000,0.500,84.000,1.000,10.000,5.000,0
"05/03/07","01:04:47",73551.000,"cc",28276.738,1,0.100,57939.000,0.200,13875.000,0.300,1683.000,0.500,49.000,1.000,5.000,5.000,0
"05/03/07","01:04:53",73577.000,"cc",28314.205,1,0.100,57780.000,0.200,13885.000,0.300,1832.000,0.500,73.000,1.000,7.000,5.000,0
"05/03/07","01:04:59",73601.000,"cc",28329.522,1,0.100,57971.000,0.200,13879.000,0.300,1697.000,0.500,49.000,1.000,5.000,5.000,0
"05/03/07","01:05:05",73573.000,"cc",28331.166,1,0.100,58110.000,0.200,13651.000,0.300,1755.000,0.500,51.000,1.000,6.000,5.000,0
"05/03/07","01:05:11",74095.000,"cc",28305.613,1,0.100,58157.000,0.200,14013.000,0.300,1844.000,0.500,72.000,1.000,9.000,5.000,0
"05/03/07","01:05:17",74235.000,"cc",28292.330,1,0.100,58529.000,0.200,13925.000,0.300,1713.000,0.500,66.000,1.000,2.000,5.000,0
"05/03/07","01:05:23",74416.000,"cc",28313.100,1,0.100,58484.000,0.200,14072.000,0.300,1803.000,0.500,50.000,1.000,7.000,5.000,0
"05/03/07","01:05:29",75152.000,"cc",28278.926,1,0.100,59093.000,0.200,14253.000,0.300,1751.000,0.500,50.000,1.000,5.000,5.000,0
"05/03/07","01:05:35",75144.000,"cc",28289.811,1,0.100,59063.000,0.200,14144.000,0.300,1865.000,0.500,65.000,1.000,7.000,5.000,0
"05/03/07","01:05:41",74941.000,"cc",28354.184,1,0.100,58918.000,0.200,14119.000,0.300,1837.000,0.500,60.000,1.000,7.000,5.000,0
"05/03/07","01:05:47",74921.000,"cc",28322.857,1,0.100,58953.000,0.200,14098.000,0.300,1805.000,0.500,60.000,1.000,5.000,5.000,0
"05/03/07","01:05:53",75058.000,"cc",28266.988,1,0.100,58961.000,0.200,14187.000,0.300,1835.000,0.500,74.000,1.000,1.000,5.000,0
"05/03/07","01:05:59",75150.000,"cc",28318.570,1,0.100,59169.000,0.200,14151.000,0.300,1759.000,0.500,67.000,1.000,4.000,5.000,0
"05/03/07","01:06:05",75361.000,"cc",28341.856,1,0.100,59251.000,0.200,14217.000,0.300,1821.000,0.500,68.000,1.000,4.000,5.000,0
"05/03/07","01:06:11",75718.000,"cc",28320.436,1,0.100,59661.000,0.200,14241.000,0.300,1754.000,0.500,58.000,1.000,4.000,5.000,0
"05/03/07","01:06:17",75346.000,"cc",28332.947,1,0.100,59248.000,0.200,14348.000,0.300,1694.000,0.500,51.000,1.000,5.000,5.000,0
"05/03/07","01:06:23",76195.000,"cc",28362.508,1,0.100,59885.000,0.200,14458.000,0.300,1783.000,0.500,64.000,1.000,5.000,5.000,0
"05/03/07","01:06:29",75501.000,"cc",28321.404,1,0.100,59424.000,0.200,14107.000,0.300,1903.000,0.500,64.000,1.000,3.000,5.000,0
"05/03/07","01:06:35",75840.000,"cc",28274.525,1,0.100,59674.000,0.200,14300.000,0.300,1804.000,0.500,59.000,1.000,3.000,5.000,0
"05/03/07","01:06:41",76175.000,"cc",28330.563,1,0.100,60045.000,0.200,14287.000,0.300,1772.000,0.500,68.000,1.000,3.000,5.000,0
"05/03/07","01:06:47",76448.000,"cc",28363.359,1,0.100,60150.000,0.200,14461.000,0.300,1771.000,0.500,56.000,1.000,10.000,5.000,0
"05/03/07","01:06:53",75561.000,"cc",28295.631,1,0.100,59347.000,0.200,14404.000,0.300,1736.000,0.500,67.000,1.000,7.000,5.000,0
"05/03/07","01:06:59",75891.000,"cc",28302.986,1,0.100,59577.000,0.200,14452.000,0.300,1792.000,0.500,63.000,1.000,7.000,5.000,0
"05/03/07","01:07:05",75541.000,"cc",28325.606,1,0.100,59662.000,0.200,14033.000,0.300,1777.000,0.500,66.000,1.000,3.000,5.000,0
"05/03/07","01:07:11",75066.000,"cc",28338.783,1,0.100,59130.000,0.200,14082.000,0.300,1798.000,0.500,49.000,1.000,7.000,5.000,0
"05/03/07","01:07:17",75221.000,"cc",28333.477,1,0.100,59037.000,0.200,14328.000,0.300,1771.000,0.500,75.000,1.000,10.000,5.000,0
"05/03/07","01:07:23",75713.000,"cc",28289.906,1,0.100,59527.000,0.200,14365.000,0.300,1750.000,0.500,57.000,1.000,14.000,5.000,0
"05/03/07","01:07:29",75798.000,"cc",28276.502,1,0.100,59806.000,0.200,14157.000,0.300,1749.000,0.500,82.000,1.000,4.000,5.000,0
"05/03/07","01:07:35",75761.000,"cc",28274.805,1,0.100,59334.000,0.200,14597.000,0.300,1748.000,0.500,76.000,1.000,6.000,5.000,0
"05/03/07","01:07:41",76523.000,"cc",28293.289,1,0.100,60252.000,0.200,14351.000,0.300,1863.000,0.500,51.000,1.000,6.000,5.000,0
"05/03/07","01:07:47",76617.000,"cc",28278.988,1,0.100,60224.000,0.200,14516.000,0.300,1806.000,0.500,64.000,1.000,7.000,5.000,0
"05/03/07","01:07:53",76612.000,"cc",28332.693,1,0.100,60185.000,0.200,14607.000,0.300,1743.000,0.500,68.000,1.000,9.000,5.000,0
"05/03/07","01:07:59",76038.000,"cc",28313.813,1,0.100,59768.000,0.200,14405.000,0.300,1792.000,0.500,69.000,1.000,4.000,5.000,0
"05/03/07","01:08:05",76507.000,"cc",28303.422,1,0.100,60498.000,0.200,14227.000,0.300,1717.000,0.500,57.000,1.000,8.000,5.000,0
"05/03/07","01:08:11",76415.000,"cc",28377.572,1,0.100,60331.000,0.200,14245.000,0.300,1779.000,0.500,53.000,1.000,7.000,5.000,0
"05/03/07","01:08:17",76489.000,"cc",28321.143,1,0.100,60255.000,0.200,14389.000,0.300,1774.000,0.500,66.000,1.000,5.000,5.000,0
"05/03/07","01:08:23",76236.000,"cc",28330.777,1,0.100,60031.000,0.200,14422.000,0.300,1719.000,0.500,57.000,1.000,7.000,5.000,0
"05/03/07","01:08:29",75173.000,"cc",28307.596,1,0.100,59038.000,0.200,14289.000,0.300,1791.000,0.500,52.000,1.000,3.000,5.000,0
"05/03/07","01:08:35",75536.000,"cc",28312.984,1,0.100,59565.000,0.200,14208.000,0.300,1693.000,0.500,61.000,1.000,9.000,5.000,0
"05/03/07","01:08:41",75217.000,"cc",28275.053,1,0.100,59138.000,0.200,14208.000,0.300,1801.000,0.500,61.000,1.000,9.000,5.000,0
"05/03/07","01:08:47",74816.000,"cc",28296.068,1,0.100,59123.000,0.200,13887.000,0.300,1741.000,0.500,59.000,1.000,6.000,5.000,0
"05/03/07","01:08:53",75279.000,"cc",28347.891,1,0.100,59384.000,0.200,14073.000,0.300,1748.000,0.500,66.000,1.000,8.000,5.000,0
"05/03/07","01:08:59",75593.000,"cc",28312.938,1,0.100,59600.000,0.200,14155.000,0.300,1769.000,0.500,64.000,1.000,5.000,5.000,0
"05/03/07","01:09:05",76093.000,"cc",28380.309,1,0.100,60012.000,0.200,14273.000,0.300,1743.000,0.500,56.000,1.000,9.000,5.000,0
"05/03/07","01:09:11",75708.000,"cc",28352.582,1,0.100,59595.000,0.200,14226.000,0.300,1802.000,0.500,77.000,1.000,8.000,5.000,0
"05/03/07","01:09:17",75185.000,"cc",28338.961,1,0.100,59202.000,0.200,14195.000,0.300,1710.000,0.500,70.000,1.000,8.000,5.000,0
"05/03/07","01:09:23",75112.000,"cc",28221.322,1,0.100,59115.000,0.200,14118.000,0.300,1810.000,0.500,64.000,1.000,5.000,5.000,0
"05/03/07","01:09:29",75443.000,"cc",28281.451,1,0.100,59519.000,0.200,14143.000,0.300,1720.000,0.500,55.000,1.000,6.000,5.000,0
"05/03/07","01:09:35",74980.000,"cc",28396.805,1,0.100,59071.000,0.200,14139.000,0.300,1697.000,0.500,68.000,1.000,5.000,5.000,0
"05/03/07","01:09:41",75100.000,"cc",28380.865,1,0.100,59101.000,0.200,14173.000,0.300,1764.000,0.500,57.000,1.000,5.000,5.000,0
"05/03/07","01:09:47",74163.000,"cc",28292.748,1,0.100,58188.000,0.200,14123.000,0.300,1789.000,0.500,59.000,1.000,4.000,5.000,0
"05/03/07","01:09:53",73739.000,"cc",28268.281,1,0.100,58298.000,0.200,13726.000,0.300,1642.000,0.500,62.000,1.000,11.000,5.000,0
"05/03/07","01:09:59",74313.000,"cc",28314.740,1,0.100,58553.000,0.200,13973.000,0.300,1714.000,0.500,64.000,1.000,9.000,5.000,0
"05/03/07","01:10:05",74421.000,"cc",28332.400,1,0.100,58550.000,0.200,14096.000,0.300,1712.000,0.500,60.000,1.000,3.000,5.000,0
"05/03/07","01:10:11",73435.000,"cc",28294.756,1,0.100,57787.000,0.200,13826.000,0.300,1759.000,0.500,54.000,1.000,9.000,5.000,0
"05/03/07","01:10:17",74333.000,"cc",28281.293,1,0.100,58470.000,0.200,14095.000,0.300,1698.000,0.500,63.000,1.000,7.000,5.000,0
"05/03/07","01:10:23",73403.000,"cc",28316.162,1,0.100,57723.000,0.200,13936.000,0.300,1672.000,0.500,64.000,1.000,8.000,5.000,0
"05/03/07","01:10:29",74190.000,"cc",28335.594,1,0.100,58495.000,0.200,13921.000,0.300,1713.000,0.500,57.000,1.000,4.000,5.000,0
"05/03/07","01:10:35",74482.000,"cc",28335.465,1,0.100,58631.000,0.200,14028.000,0.300,1764.000,0.500,50.000,1.000,9.000,5.000,0
"05/03/07","01:10:41",75215.000,"cc",28310.205,1,0.100,59299.000,0.200,14063.000,0.300,1769.000,0.500,77.000,1.000,7.000,5.000,0
"05/03/07","01:10:47",75538.000,"cc",28353.826,1,0.100,59405.000,0.200,14318.000,0.300,1748.000,0.500,59.000,1.000,8.000,5.000,0
"05/03/07","01:10:53",76861.000,"cc",28314.535,1,0.100,60350.000,0.200,14629.000,0.300,1807.000,0.500,71.000,1.000,4.000,5.000,0
"05/03/07","01:10:59",77253.000,"cc",28303.680,1,0.100,60991.000,0.200,14405.000,0.300,1799.000,0.500,53.000,1.000,5.000,5.000,0
"05/03/07","01:11:05",77296.000,"cc",28289.082,1,0.100,60860.000,0.200,14538.000,0.300,1824.000,0.500,68.000,1.000,6.000,5.000,0
"05/03/07","01:11:11",77736.000,"cc",28338.379,1,0.100,61189.000,0.200,14629.000,0.300,1852.000,0.500,62.000,1.000,4.000,5.000,0
"05/03/07","01:11:17",77575.000,"cc",28325.541,1,0.100,60945.000,0.200,14710.000,0.300,1848.000,0.500,70.000,1.000,2.000,5.000,0
"05/03/07","01:11:23",77601.000,"cc",28282.115,1,0.100,60931.000,0.200,14649.000,0.300,1945.000,0.500,68.000,1.000,8.000,5.000,0
"05/03/07","01:11:29",77538.000,"cc",28353.690,1,0.100,60996.000,0.200,14629.000,0.300,1844.000,0.500,62.000,1.000,7.000,5.000,0
"05/03/07","01:11:35",77921.000,"cc",28335.865,1,0.100,61199.000,0.200,14777.000,0.300,1879.000,0.500,61.000,1.000,5.000,5.000,0
"05/03/07","01:11:41",78177.000,"cc",28280.356,1,0.100,61717.000,0.200,14607.000,0.300,1782.000,0.500,69.000,1.000,2.000,5.000,0
"05/03/07","01:11:47",78659.000,"cc",28269.809,1,0.100,61787.000,0.200,14878.000,0.300,1934.000,0.500,54.000,1.000,6.000,5.000,0
"05/03/07","01:11:53",79077.000,"cc",28296.732,1,0.100,62164.000,0.200,14915.000,0.300,1934.000,0.500,59.000,1.000,5.000,5.000,0
"05/03/07","01:11:59",79487.000,"cc",28356.723,1,0.100,62769.000,0.200,14823.000,0.300,1827.000,0.500,59.000,1.000,9.000,5.000,0
"05/03/07","01:12:05",79117.000,"cc",28341.553,1,0.100,62063.000,0.200,15150.000,0.300,1833.000,0.500,66.000,1.000,5.000,5.000,0
"05/03/07","01:12:11",79249.000,"cc",28314.225,1,0.100,62479.000,0.200,14819.000,0.300,1870.000,0.500,71.000,1.000,10.000,5.000,0
"05/03/07","01:12:17",79108.000,"cc",28306.131,1,0.100,62217.000,0.200,14947.000,0.300,1869.000,0.500,68.000,1.000,7.000,5.000,0
"05/03/07","01:12:23",79863.000,"cc",28334.428,1,0.100,62784.000,0.200,15100.000,0.300,1917.000,0.500,55.000,1.000,7.000,5.000,0
"05/03/07","01:12:29",79339.000,"cc",28259.613,1,0.100,62459.000,0.200,14845.000,0.300,1951.000,0.500,76.000,1.000,8.000,5.000,0
"05/03/07","01:12:35",79792.000,"cc",28361.772,1,0.100,62952.000,0.200,14833.000,0.300,1933.000,0.500,65.000,1.000,9.000,5.000,0
"05/03/07","01:12:41",80093.000,"cc",28312.781,1,0.100,62997.000,0.200,15111.000,0.300,1907.000,0.500,73.000,1.000,5.000,5.000,0
"05/03/07","01:12:47",80496.000,"cc",28361.846,1,0.100,63215.000,0.200,15276.000,0.300,1936.000,0.500,63.000,1.000,6.000,5.000,0
"05/03/07","01:12:53",80394.000,"cc",28349.822,1,0.100,63104.000,0.200,15280.000,0.300,1937.000,0.500,68.000,1.000,5.000,5.000,0
"05/03/07","01:12:59",81150.000,"cc",28277.799,1,0.100,63825.000,0.200,15356.000,0.300,1899.000,0.500,64.000,1.000,6.000,5.000,0
"05/03/07","01:13:05",80797.000,"cc",28280.877,1,0.100,63773.000,0.200,14996.000,0.300,1942.000,0.500,83.000,1.000,3.000,5.000,0
"05/03/07","01:13:11",80536.000,"cc",28355.053,1,0.100,63416.000,0.200,15081.000,0.300,1965.000,0.500,65.000,1.000,9.000,5.000,0
"05/03/07","01:13:17",81186.000,"cc",28337.086,1,0.100,63962.000,0.200,15225.000,0.300,1929.000,0.500,64.000,1.000,6.000,5.000,0
"05/03/07","01:13:23",80645.000,"cc",28307.275,1,0.100,63452.000,0.200,15169.000,0.300,1937.000,0.500,83.000,1.000,4.000,5.000,0
"05/03/07","01:13:29",80169.000,"cc",28315.445,1,0.100,62974.000,0.200,15220.000,0.300,1913.000,0.500,56.000,1.000,6.000,5.000,0
"05/03/07","01:13:35",80241.000,"cc",28311.039,1,0.100,63018.000,0.200,15220.000,0.300,1920.000,0.500,73.000,1.000,10.000,5.000,0
"05/03/07","01:13:41",80541.000,"cc",28315.000,1,0.100,63325.000,0.200,15209.000,0.300,1917.000,0.500,84.000,1.000,6.000,5.000,0
"05/03/07","01:13:47",80136.000,"cc",28301.504,1,0.100,62964.000,0.200,15198.000,0.300,1906.000,0.500,62.000,1.000,6.000,5.000,0
"05/03/07","01:13:53",80239.000,"cc",28287.953,1,0.100,63082.000,0.200,15136.000,0.300,1933.000,0.500,79.000,1.000,9.000,5.000,0
"05/03/07","01:13:59",79892.000,"cc",28333.574,1,0.100,62966.000,0.200,14955.000,0.300,1887.000,0.500,80.000,1.000,4.000,5.000,0
"05/03/07","01:14:05",79926.000,"cc",28360.693,1,0.100,62740.000,0.200,15123.000,0.300,1989.000,0.500,65.000,1.000,9.000,5.000,0
"05/03/07","01:14:11",79374.000,"cc",28319.244,1,0.100,62224.000,0.200,15170.000,0.300,1908.000,0.500,62.000,1.000,10.000,5.000,0
"05/03/07","01:14:17",78994.000,"cc",28312.871,1,0.100,61952.000,0.200,15113.000,0.300,1860.000,0.500,59.000,1.000,10.000,5.000,0
"05/03/07","01:14:23",78786.000,"cc",28312.715,1,0.100,62098.000,0.200,14757.000,0.300,1855.000,0.500,73.000,1.000,3.000,5.000,0
"05/03/07","01:14:29",79014.000,"cc",28322.152,1,0.100,62112.000,0.200,15005.000,0.300,1838.000,0.500,55.000,1.000,4.000,5.000,0
"05/03/07","01:14:35",78443.000,"cc",28300.895,1,0.100,61635.000,0.200,14882.000,0.300,1848.000,0.500,72.000,1.000,6.000,5.000,0
"05/03/07","01:14:41",78327.000,"cc",28323.656,1,0.100,61612.000,0.200,14737.000,0.300,1918.000,0.500,55.000,1.000,5.000,5.000,0
"05/03/07","01:14:47",78551.000,"cc",28342.166,1,0.100,61874.000,0.200,14768.000,0.300,1845.000,0.500,57.000,1.000,7.000,5.000,0
"05/03/07","01:14:53",78688.000,"cc",28331.451,1,0.100,61914.000,0.200,14789.000,0.300,1920.000,0.500,65.000,1.000,0,5.000,0
"05/03/07","01:14:59",77005.000,"cc",28348.207,1,0.100,60650.000,0.200,14450.000,0.300,1836.000,0.500,64.000,1.000,5.000,5.000,0
"05/03/07","01:15:05",77383.000,"cc",28266.979,1,0.100,60916.000,0.200,14586.000,0.300,1813.000,0.500,62.000,1.000,6.000,5.000,0
"05/03/07","01:15:11",76716.000,"cc",28300.795,1,0.100,60226.000,0.200,14577.000,0.300,1843.000,0.500,65.000,1.000,5.000,5.000,0
"05/03/07","01:15:17",77088.000,"cc",28307.705,1,0.100,60709.000,0.200,14517.000,0.300,1806.000,0.500,48.000,1.000,8.000,5.000,0
"05/03/07","01:15:23",76740.000,"cc",28320.506,1,0.100,60433.000,0.200,14449.000,0.300,1799.000,0.500,57.000,1.000,2.000,5.000,0
"05/03/07","01:15:29",76752.000,"cc",28264.516,1,0.100,60415.000,0.200,14417.000,0.300,1852.000,0.500,65.000,1.000,3.000,5.000,0
"05/03/07","01:15:35",76779.000,"cc",28321.338,1,0.100,60341.000,0.200,14552.000,0.300,1829.000,0.500,53.000,1.000,4.000,5.000,0
"05/03/07","01:15:41",76896.000,"cc",28356.119,1,0.100,60469.000,0.200,14558.000,0.300,1804.000,0.500,64.000,1.000,1.000,5.000,0
"05/03/07","01:15:47",76825.000,"cc",28324.727,1,0.100,60370.000,0.200,14481.000,0.300,1899.000,0.500,71.000,1.000,4.000,5.000,0
"05/03/07","01:15:53",76987.000,"cc",28256.850,1,0.100,60436.000,0.200,14630.000,0.300,1861.000,0.500,60.000,1.000,0,5.000,0
"05/03/07","01:15:59",77114.000,"cc",28301.572,1,0.100,60832.000,0.200,14387.000,0.300,1836.000,0.500,54.000,1.000,5.000,5.000,0
"05/03/07","01:16:05",77450.000,"cc",28321.273,1,0.100,61011.000,0.200,14449.000,0.300,1935.000,0.500,54.000,1.000,1.000,5.000,0
"05/03/07","01:16:11",76995.000,"cc",28310.955,1,0.100,60580.000,0.200,14588.000,0.300,1761.000,0.500,58.000,1.000,8.000,5.000,0
"05/03/07","01:16:17",76794.000,"cc",28309.361,1,0.100,60413.000,0.200,14575.000,0.300,1734.000,0.500,68.000,1.000,4.000,5.000,0
"05/03/07","01:16:23",77056.000,"cc",28389.996,1,0.100,60504.000,0.200,14610.000,0.300,1883.000,0.500,56.000,1.000,3.000,5.000,0
"05/03/07","01:16:29",77138.000,"cc",28282.225,1,0.100,60675.000,0.200,14580.000,0.300,1817.000,0.500,64.000,1.000,2.000,5.000,0
"05/03/07","01:16:35",76887.000,"cc",28342.510,1,0.100,60572.000,0.200,14428.000,0.300,1822.000,0.500,60.000,1.000,5.000,5.000,0
"05/03/07","01:16:41",77055.000,"cc",28300.440,1,0.100,60606.000,0.200,14628.000,0.300,1751.000,0.500,69.000,1.000,1.000,5.000,0
"05/03/07","01:16:47",77597.000,"cc",28339.408,1,0.100,61099.000,0.200,14610.000,0.300,1813.000,0.500,70.000,1.000,5.000,5.000,0
"05/03/07","01:16:53",76675.000,"cc",28265.201,1,0.100,60270.000,0.200,14543.000,0.300,1789.000,0.500,66.000,1.000,7.000,5.000,0
"05/03/07","01:16:59",77287.000,"cc",28293.922,1,0.100,60774.000,0.200,14636.000,0.300,1806.000,0.500,67.000,1.000,4.000,5.000,0
"05/03/07","01:17:05",77802.000,"cc",28362.738,1,0.100,61245.000,0.200,14704.000,0.300,1785.000,0.500,64.000,1.000,4.000,5.000,0
"05/03/07","01:17:11",77376.000,"cc",28359.350,1,0.100,61023.000,0.200,14520.000,0.300,1778.000,0.500,49.000,1.000,6.000,5.000,0
"05/03/07","01:17:17",77192.000,"cc",28321.928,1,0.100,60704.000,0.200,14574.000,0.300,1846.000,0.500,63.000,1.000,5.000,5.000,0
"05/03/07","01:17:23",77905.000,"cc",28320.648,1,0.100,61359.000,0.200,14567.000,0.300,1894.000,0.500,82.000,1.000,3.000,5.000,0
"05/03/07","01:17:29",77881.000,"cc",28314.359,1,0.100,61393.000,0.200,14618.000,0.300,1800.000,0.500,65.000,1.000,5.000,5.000,0